カタログに戻る

COSMOS 836

運用中軍事LEO
NORAD 8923·PAYLOAD·🇷🇺 Russia

打ち上げ Jun 29, 1976 から Plesetsk Cosmodrome

Loading…

次のパス (今後24時間)

TLE

最新Source: Space-Track

元期: Sep 14, 2026, 12:12 UTC

1 08923U 76061A   26257.50881092  .00000108  00000-0  47622-4 0  9991
2 08923  74.0544 171.9572 0017237  24.3798 335.8166 14.34130204623019

AllMySatでCOSMOS 836をリアルタイム追跡

Download on the App Store